Weather History for Lincoln, NE

Change the Weather History Date:

Thursday, September 27, 2012

  Actual Average Record
Temperature  
Mean Temperature 58 °F 61 °F  
Max Temperature 79 °F 74 °F 93 °F (1956)
Min Temperature 37 °F 48 °F 32 °F (1942)
Degree Days  
Heating Degree Days 7 6  
Month to date heating degree days 86 74  
Since 1 July heating degree days 93 80  
Cooling Degree Days 0 2  
Month to date cooling degree days 99 118  
Year to date cooling degree days 1491 1153  
Growing Degree Days 8 (Base 50)    
Moisture  
Dew Point 33 °F    
Average Humidity 47    
Maximum Humidity 79    
Minimum Humidity 15    
Precipitation  
Precipitation 0.00 in 0.09 in 1.37 in (1907)
Month to date precipitation 1.73 2.76  
Year to date precipitation 15.57 24.34  
Snow  
Snow 0.00 in 0.00 in - ()
Month to date snowfall 0.0 0.0  
Since 1 July snowfall 0.0 0.0  
Snow Depth 0.00 in    
Sea Level Pressure  
Sea Level Pressure 30.17 in    
Wind  
Wind Speed 4 mph (NNE)    
Max Wind Speed 9 mph    
Max Gust Speed 13 mph    
Visibility 9 miles    
Events      
T = Trace of Precipitation, MM = Missing Value Source: NWS Daily Summary

Daily Weather History Graph

Daily Weather History Graph

Search for Another Location

Airport:

Trip Planner

Search our weather history database for the weather conditions in past years. The results will help you decide how hot, cold, wet, or windy it might be!

Date:

Astronomy

Sep. 27, 2012 Rise Set
Actual Time 7:20 AM CDT 7:14 PM CDT
Civil Twilight 6:52 AM CDT 7:42 PM CDT
Nautical Twilight 6:20 AM CDT 8:14 PM CDT
Astronomical Twilight 5:48 AM CDT 8:46 PM CDT
Moon 5:47 PM CDT 4:49 AM CDT
Length of Visible Light 12h 49m
Length of Day
11h 54m
Waxing Gibbous, 94% of the Moon is Illuminated
Sep 27
Waxing Gibbous
Sep 29
Full
Oct 8
Last Quarter
Oct 15
New
Oct 21
First Quarter

Hourly Weather History & Observations

Time (CDT) Temp. Windchill Dew Point Humidity Pressure Visibility Wind Dir Wind Speed Gust Speed Precip Events Conditions
12:54 AM 44.1 °F 42.5 °F 34.0 °F 68% 30.17 in 8.0 mi North 3.5 mph - N/A   Clear
1:54 AM 43.0 °F 40.3 °F 34.0 °F 71% 30.15 in 9.0 mi North 4.6 mph - N/A   Clear
2:54 AM 43.0 °F - 34.0 °F 71% 30.16 in 9.0 mi Calm Calm - N/A   Clear
3:54 AM 42.1 °F - 33.1 °F 70% 30.19 in 10.0 mi Calm Calm - N/A   Clear
4:54 AM 41.0 °F 37.1 °F 33.1 °F 73% 30.20 in 10.0 mi North 5.8 mph - N/A   Clear
5:54 AM 39.9 °F 37.8 °F 33.1 °F 77% 30.20 in 10.0 mi North 3.5 mph - N/A   Clear
6:54 AM 39.9 °F 36.7 °F 33.1 °F 77% 30.20 in 10.0 mi NNW 4.6 mph - N/A   Clear
7:54 AM 39.0 °F 35.7 °F 33.1 °F 79% 30.21 in 8.0 mi North 4.6 mph - N/A   Clear
8:54 AM 45.0 °F 43.5 °F 36.0 °F 71% 30.22 in 8.0 mi North 3.5 mph - N/A   Clear
9:54 AM 54.0 °F - 36.0 °F 51% 30.22 in 8.0 mi NNW 3.5 mph - N/A   Clear
10:54 AM 61.0 °F - 35.1 °F 38% 30.24 in 7.0 mi Calm Calm - N/A   Clear
11:54 AM 69.1 °F - 37.0 °F 31% 30.21 in 7.0 mi ESE 3.5 mph - N/A   Clear
12:54 PM 73.0 °F - 30.0 °F 20% 30.19 in 9.0 mi ENE 4.6 mph - N/A   Clear
1:54 PM 75.9 °F - 28.0 °F 17% 30.17 in 10.0 mi NE 5.8 mph - N/A   Clear
2:54 PM 75.9 °F - 25.0 °F 15% 30.14 in 10.0 mi Variable 3.5 mph - N/A   Clear
3:54 PM 77.0 °F - 26.1 °F 15% 30.13 in 10.0 mi NE 4.6 mph - N/A   Clear
4:54 PM 75.9 °F - 26.1 °F 16% 30.13 in 10.0 mi NNE 4.6 mph - N/A   Clear
5:54 PM 72.0 °F - 28.0 °F 20% 30.13 in 10.0 mi East 6.9 mph - N/A   Clear
6:54 PM 71.1 °F - 30.9 °F 23% 30.13 in 10.0 mi ENE 6.9 mph - N/A   Clear
7:54 PM 62.1 °F - 35.1 °F 37% 30.14 in 10.0 mi East 4.6 mph - N/A   Clear
8:54 PM 59.0 °F - 35.1 °F 41% 30.15 in 9.0 mi Calm Calm - N/A   Clear
9:54 PM 48.9 °F - 37.0 °F 64% 30.16 in 8.0 mi NNW 4.6 mph - N/A   Clear
10:54 PM 52.0 °F - 37.0 °F 57% 30.16 in 8.0 mi Calm Calm - N/A   Clear
11:54 PM 45.0 °F 43.5 °F 36.0 °F 71% 30.15 in 7.0 mi North 3.5 mph - N/A   Clear